Morrisville, VT

2:36 AM EDT on March 28, 2017 (GMT -0400)
Morrisville Stowe State

Weather History for KMVL - May, 2013

Change the Weather History Date:

Wednesday, May 22, 2013

  Actual Average Record
Temperature  
Mean Temperature 67 °F 56 °F  
Max Temperature 80 °F 69 °F 80 °F (2013)
Min Temperature 53 °F 43 °F 28 °F (2002)
Degree Days  
Heating Degree Days 0 9  
Month to date heating degree days 175 277  
Since 1 July heating degree days 7441 8057  
Cooling Degree Days 2 0  
Month to date cooling degree days 2 0  
Year to date cooling degree days 2 1  
Growing Degree Days 16 (Base 50)    
Moisture  
Dew Point 61 °F    
Average Humidity 79    
Maximum Humidity 100    
Minimum Humidity 58    
Precipitation  
Precipitation 0.64 in 0.11 in 0.64 in (2013)
Month to date precipitation 2.14 2.13  
Year to date precipitation 9.17 10.48  
Sea Level Pressure  
Sea Level Pressure 29.83 in    
Wind  
Wind Speed 3 mph (SSW)    
Max Wind Speed 13 mph    
Max Gust Speed 18 mph    
Visibility 8 miles    
Events Rain , Thunderstorm    
T = Trace of Precipitation, MM = Missing Value Source: NWS Daily Summary

Daily Weather History Graph

Daily Weather History Graph

Search for Another Location

Airport or City:

Trip Planner

Search our weather history database for the weather conditions in past years. The results will help you decide how hot, cold, wet, or windy it might be!

Date:

Astronomy

May. 22, 2013 Rise Set
Actual Time 5:15 AM EDT 8:19 PM EDT
Civil Twilight 4:40 AM EDT 8:54 PM EDT
Nautical Twilight 3:56 AM EDT 9:38 PM EDT
Astronomical Twilight 3:03 AM EDT 10:32 PM EDT
Moon 5:32 PM EDT (5/22) 3:24 AM EDT (5/22)
Length of Visible Light 16h 13m
Length of Day
15h 03m
Waxing Gibbous, 91% of the Moon is Illuminated
May 22
Waxing Gibbous
May 25
Full
May 31
Last Quarter
Jun 8
New
Jun 16
First Quarter

Hourly Weather History & Observations

Time (EDT) Temp. Dew Point Humidity Pressure Visibility Wind Dir Wind Speed Gust Speed Precip Events Conditions
12:54 AM 55.9 °F 53.1 °F 90% 29.89 in 5.0 mi Variable 6.9 mph - 0.02 in Rain Light Rain
1:16 AM 55.4 °F 53.6 °F 94% 29.89 in 2.5 mi SSW 10.4 mph 17.3 mph 0.14 in Rain Heavy Rain
1:28 AM 55.4 °F 53.6 °F 94% 29.88 in 4.0 mi South 4.6 mph - 0.18 in Rain Light Rain
1:54 AM 55.0 °F 53.1 °F 93% 29.86 in 5.0 mi Calm Calm - 0.25 in Rain Light Rain
2:54 AM 55.0 °F 53.1 °F 93% 29.86 in 8.0 mi SSE 3.5 mph - 0.07 in Rain Light Rain
3:54 AM 54.0 °F 52.0 °F 93% 29.86 in 9.0 mi Calm Calm - 0.02 in Rain Light Rain
4:54 AM 53.1 °F 51.1 °F 93% 29.85 in 10.0 mi Calm Calm - 0.01 in   Overcast
5:35 AM 53.6 °F 51.8 °F 94% 29.86 in 10.0 mi Variable 3.5 mph - N/A   Overcast
5:54 AM 54.0 °F 51.1 °F 90% 29.86 in 10.0 mi South 3.5 mph - N/A   Overcast
6:54 AM 54.0 °F 52.0 °F 93% 29.88 in 10.0 mi South 6.9 mph - N/A   Overcast
7:54 AM 55.9 °F 53.1 °F 90% 29.88 in 10.0 mi South 4.6 mph - N/A   Overcast
8:54 AM 57.9 °F 55.0 °F 90% 29.88 in 10.0 mi Calm Calm - N/A   Overcast
9:54 AM 62.1 °F 55.9 °F 80% 29.88 in 10.0 mi Calm Calm - N/A   Overcast
10:27 AM 64.4 °F 57.2 °F 77% 29.87 in 10.0 mi Calm Calm - N/A   Scattered Clouds
10:54 AM 66.9 °F 59.0 °F 76% 29.87 in 10.0 mi Calm Calm - N/A   Clear
11:54 AM 73.0 °F 62.1 °F 68% 29.86 in 10.0 mi Variable 3.5 mph - N/A   Clear
12:54 PM 75.9 °F 64.9 °F 69% 29.83 in 10.0 mi Variable 4.6 mph - N/A   Clear
1:54 PM 78.1 °F 64.0 °F 62% 29.81 in 10.0 mi Variable 4.6 mph - N/A   Clear
2:54 PM 79.0 °F 63.0 °F 58% 29.79 in 10.0 mi SW 4.6 mph 16.1 mph N/A   Mostly Cloudy
3:30 PM 75.2 °F 64.4 °F 69% 29.80 in 10.0 mi SSW 8.1 mph - 0.01 in Rain , Thunderstorm Light Rain
3:45 PM 73.4 °F 66.2 °F 78% 29.82 in 8.0 mi SSW 5.8 mph - 0.02 in Rain Light Rain
3:54 PM 72.0 °F 66.9 °F 84% 29.81 in 6.0 mi WSW 3.5 mph 18.4 mph 0.03 in Rain Light Rain
4:54 PM 70.0 °F 64.9 °F 84% 29.81 in 10.0 mi Variable 3.5 mph - 0.02 in   Mostly Cloudy
5:52 PM 69.8 °F 64.4 °F 83% 29.80 in 10.0 mi Calm Calm - N/A Thunderstorm Mostly Cloudy
5:54 PM 69.1 °F 64.9 °F 87% 29.81 in 10.0 mi Calm Calm - N/A Thunderstorm Mostly Cloudy
6:07 PM 69.8 °F 64.4 °F 83% 29.80 in 10.0 mi Calm Calm - N/A   Mostly Cloudy
6:18 PM 68.0 °F 64.4 °F 88% 29.81 in 10.0 mi Calm Calm - N/A Thunderstorm Overcast
6:33 PM 68.0 °F 64.4 °F 88% 29.82 in 10.0 mi NNW 4.6 mph - 0.01 in Rain , Thunderstorm Light Rain
6:47 PM 66.2 °F 64.4 °F 94% 29.84 in 1.8 mi NNW 8.1 mph - 0.12 in Rain , Thunderstorm Heavy Rain
6:54 PM 66.0 °F 64.9 °F 96% 29.84 in 1.0 mi NNW 4.6 mph - 0.19 in Rain , Thunderstorm Heavy Thunderstorms and Rain
7:06 PM 66.2 °F 64.4 °F 94% 29.83 in 2.0 mi ESE 3.5 mph - 0.03 in Rain , Thunderstorm Light Thunderstorms and Rain
7:09 PM 66.2 °F 64.4 °F 94% 29.83 in 4.0 mi Calm Calm - 0.03 in Rain Light Rain
7:21 PM 66.2 °F 64.4 °F 94% 29.82 in 1.8 mi Calm Calm - 0.06 in Rain Rain
7:25 PM 66.2 °F 64.4 °F 94% 29.82 in 2.0 mi Calm Calm - 0.07 in Rain Rain
7:36 PM 66.2 °F 64.4 °F 94% 29.82 in 8.0 mi Calm Calm - 0.07 in Rain Light Rain
7:54 PM 66.0 °F 64.9 °F 96% 29.82 in 8.0 mi Calm Calm - 0.07 in   Mostly Cloudy
8:44 PM 64.4 °F 64.4 °F 100% 29.82 in 1.8 mi Calm Calm - N/A   Mostly Cloudy
8:54 PM 64.9 °F 64.0 °F 97% 29.82 in 1.2 mi Calm Calm - N/A   Mostly Cloudy
9:03 PM 64.4 °F 64.4 °F 100% 29.82 in 2.0 mi SSW 3.5 mph - N/A   Overcast
9:10 PM 64.4 °F 64.4 °F 100% 29.82 in 6.0 mi Calm Calm - N/A   Overcast
9:54 PM 66.0 °F 63.0 °F 90% 29.82 in 10.0 mi South 5.8 mph - N/A   Overcast
10:47 PM 64.4 °F 62.6 °F 94% 29.79 in 10.0 mi South 3.5 mph - N/A   Mostly Cloudy
10:54 PM 66.0 °F 62.1 °F 87% 29.78 in 10.0 mi South 5.8 mph - N/A   Mostly Cloudy
11:12 PM 64.4 °F 62.6 °F 94% 29.79 in 10.0 mi South 6.9 mph - N/A   Overcast
11:54 PM 64.0 °F 61.0 °F 90% 29.79 in 10.0 mi SSE 4.6 mph - N/A   Overcast